Flag Weather past 2 weeks in Querétaro, Querétaro, Mexico

Now
46 °F

Passing clouds.


Feels Like: 42 °F
Forecast: 34 / 65 °F
Wind: 9 mph from East

Location: Queretaro - Qro.

Current Time: Nov 27, 2014 at 10:32:11 PM

Latest Report: Nov 27, 2014 at 9:45 PM


Visibility: 7 mi

Pressure: 30.47 "Hg

Humidity: 57%

Dew point: 32 °F

Location of QuerétaroLocation

Historic Weather in Querétaro — Graph

°F

Querétaro temperature yesterday

Maximum temperature yesterday: 70 °F (at 2:45 PM)
Minimum temperature yesterday: 34 °F (at 4:45 AM)
Average temperature yesterday: 50 °F

Past Weeks' High & Low Weather Summary

 TemperatureHumidityPressure
High79 °F (Nov 14, 4:45 PM)100% (Nov 18, 7:45 AM)30.51 "Hg (Nov 18, 7:45 AM)
Low30 °F (Nov 27, 5:45 AM)9% (Nov 26, 2:45 PM)30.11 "Hg (Nov 23, 2:45 PM)
Average58 °F66%30.31 "Hg
* Reported Nov 12 8:45 PM — Nov 27 8:45 PM, Querétaro, Weather by CustomWeather, © 2014

Note: Actual official high and low records may vary slightly from our data, if they occured in-between our weather recording intervals... More about our weather records

Advertising

Querétaro weather history for previous 24 hours

 ConditionsComfort  
Time TempWeatherWind HumidityBarometerVisibility
8:45 PM
Nov 27
48 °FPartly cloudy.10 mph50%30.38 "Hg7 mi
7:45 PM50 °FPartly cloudy.7 mph28%30.38 "Hg7 mi
6:45 PM52 °FPartly cloudy.17 mph67%30.43 "Hg7 mi
4:45 PM61 °FPartly sunny.21 mph22%30.36 "Hg7 mi
3:45 PM64 °FPartly sunny.29 mph73%30.37 "Hg7 mi
2:45 PM68 °FBroken clouds.29 mph9%30.34 "Hg7 mi
1:45 PM66 °FBroken clouds.20 mph9%30.38 "Hg14 mi
12:45 PM66 °FPartly sunny.23 mph9%30.40 "Hg14 mi
11:45 AM63 °FPartly sunny.2 mph12%30.46 "Hg14 mi
10:45 AM63 °FScattered clouds.17 mph13%30.48 "Hg14 mi
9:45 AM54 °FScattered clouds.16 mph30%30.51 "Hg14 mi
8:45 AM46 °FScattered clouds.12 mph53%30.51 "Hg14 mi
7:45 AM37 °FPassing clouds.7 mph75%30.50 "Hg14 mi
6:45 AM34 °FPassing clouds.6 mph81%30.48 "Hg7 mi
5:45 AM30 °FClear.No wind93%30.46 "Hg7 mi
4:45 AM34 °FClear.No wind81%30.45 "Hg7 mi
3:45 AM36 °FClear.No wind75%30.45 "Hg10 mi
2:45 AM34 °FClear.7 mph87%30.44 "Hg10 mi
1:45 AM39 °FClear.5 mph70%30.45 "Hg10 mi
12:45 AM39 °FClear.7 mph70%30.46 "Hg10 mi
11:45 PM
Nov 26
41 °FClear.7 mph66%30.46 "Hg10 mi
10:45 PM45 °FPassing clouds.9 mph57%30.46 "Hg10 mi
Weather by CustomWeather, © 2014

See weather overviewHow to use our weather pages